User: anonymous   Login
Location: Moena
(46.3667°N, 11.6500°E)
Time: 17:57:22
(UTC+00:00)
Language:

Cosmos 1354 Rocket - Orbit

View from above orbital plane
View from above orbital plane
View from above satellite
View from above satellite

Ground track
Ground track

The orbit data is extracted from the following two-line orbital elements,

1 13149U 82037B   21129.23265845 -.00000011  00000-0  51972-5 0  9990
2 13149  74.0405 166.6264 0012736  16.5826 343.5741 14.35396894 41327
Epoch (UTC): 09 May 2021 05:35:01
Eccentricity: 0.0012736
inclination: 74.0405°
perigee height: 764 km
apogee height: 783 km
right ascension of ascending node: 166.6264°
argument of perigee: 16.5826°
revolutions per day: 14.35396894
mean anomaly at epoch: 343.5741°
orbit number at epoch: 4132

The dashed part of the orbit path shows where the satellite is in the earth's shadow,  

DLR